When you browse on this site, cookies collect data to enhance your experience and personalize the content and advertising you see.
Visit our Privacy Policy to learn more. By continuing to use the site, you agree to this use of cookies and data.
  • In Germany
  • List of Countries
  • For 7 days
  • Water Temperature
  • Satellite Maps
  • Weather Map
  • Weather Widgets
  • user-avatar
    Login

    Hourly Weather Bhopal

    Today, 11 December, Tuesday

    Time Temperature Precipitation Wind Pressure Humidity
    00:00 +17°C° 0 mm 2 mps 716 mmHg 40%
    01:00 +16°C° 0 mm 2 mps 716 mmHg 42%
    02:00 +16°C° 0 mm 2 mps 716 mmHg 43%
    03:00 +15°C° 0 mm 2 mps 716 mmHg 45%
    04:00 +15°C° 0 mm 2 mps 716 mmHg 46%
    05:00 +15°C° 0 mm 2 mps 716 mmHg 48%
    06:00 +16°C° 0 mm 2 mps 717 mmHg 47%
    07:00 +16°C° 0 mm 2 mps 717 mmHg 46%
    08:00 +17°C° 0 mm 2 mps 718 mmHg 46%
    09:00 +20°C° 0 mm 2 mps 718 mmHg 40%
    10:00 +23°C° 0 mm 2 mps 718 mmHg 35%
    11:00 +25°C° 0 mm 2 mps 719 mmHg 30%
    12:00 +26°C° 0 mm 2 mps 718 mmHg 28%
    13:00 +26°C° 0 mm 2 mps 718 mmHg 26%
    14:00 +27°C° 0 mm 2 mps 717 mmHg 24%
    15:00 +25°C° 0 mm 2 mps 717 mmHg 27%
    16:00 +24°C° 0 mm 2 mps 717 mmHg 30%
    17:00 +21°C° 0 mm 2 mps 717 mmHg 33%
    18:00 +20°C° 0 mm 2 mps 717 mmHg 33%
    19:00 +19°C° 0 mm 2 mps 717 mmHg 34%
    20:00 +19°C° 0 mm 2 mps 718 mmHg 35%
    21:00 +18°C° 0 mm 2 mps 718 mmHg 36%
    22:00 +17°C° 0 mm 2 mps 718 mmHg 37%
    23:00 +17°C° 0 mm 2 mps 718 mmHg 38%

    Tomorrow, 12 December, Wednesday

    Time Temperature Precipitation Wind Pressure Humidity
    00:00 +16°C° 0 mm 3 mps 718 mmHg 39%
    01:00 +16°C° 0 mm 3 mps 718 mmHg 40%
    02:00 +14°C° 0 mm 3 mps 717 mmHg 41%
    03:00 +14°C° 0 mm 3 mps 717 mmHg 42%
    04:00 +13°C° 0 mm 3 mps 717 mmHg 43%
    05:00 +13°C° 0 mm 3 mps 717 mmHg 45%
    06:00 +14°C° 0 mm 3 mps 718 mmHg 44%
    07:00 +16°C° 0 mm 3 mps 719 mmHg 44%
    08:00 +17°C° 0 mm 3 mps 719 mmHg 43%
    09:00 +19°C° 0 mm 3 mps 719 mmHg 38%
    10:00 +21°C° 0 mm 4 mps 720 mmHg 34%
    11:00 +25°C° 0 mm 4 mps 720 mmHg 29%
    12:00 +25°C° 0 mm 3 mps 719 mmHg 28%
    13:00 +26°C° 0 mm 3 mps 719 mmHg 26%
    14:00 +26°C° 0 mm 3 mps 718 mmHg 25%
    15:00 +25°C° 0 mm 3 mps 718 mmHg 28%
    16:00 +23°C° 0 mm 2 mps 717 mmHg 31%
    17:00 +21°C° 0 mm 2 mps 717 mmHg 33%
    18:00 +20°C° 0 mm 2 mps 718 mmHg 34%
    19:00 +19°C° 0 mm 2 mps 718 mmHg 34%
    20:00 +18°C° 0 mm 3 mps 719 mmHg 34%
    21:00 +17°C° 0 mm 3 mps 719 mmHg 34%
    22:00 +17°C° 0 mm 3 mps 719 mmHg 35%
    23:00 +16°C° 0 mm 3 mps 719 mmHg 35%

    Day after tomorrow, 13 December, Thursday

    Time Temperature Precipitation Wind Pressure Humidity
    00:00 +16°C° 0 mm 3 mps 719 mmHg 37%
    01:00 +14°C° 0 mm 3 mps 718 mmHg 38%
    02:00 +14°C° 0 mm 3 mps 718 mmHg 39%
    03:00 +14°C° 0 mm 3 mps 718 mmHg 40%
    04:00 +13°C° 0 mm 3 mps 718 mmHg 42%
    05:00 +13°C° 0 mm 3 mps 718 mmHg 44%
    06:00 +14°C° 0 mm 3 mps 719 mmHg 43%
    07:00 +15°C° 0 mm 4 mps 720 mmHg 43%
    08:00 +17°C° 0 mm 4 mps 720 mmHg 43%
    09:00 +19°C° 0 mm 4 mps 721 mmHg 38%
    10:00 +21°C° 0 mm 4 mps 721 mmHg 33%
    11:00 +25°C° 0 mm 4 mps 721 mmHg 27%
    12:00 +25°C° 0 mm 4 mps 720 mmHg 26%
    13:00 +26°C° 0 mm 4 mps 720 mmHg 25%
    14:00 +26°C° 0 mm 3 mps 719 mmHg 24%
    15:00 +25°C° 0 mm 3 mps 719 mmHg 27%
    16:00 +22°C° 0 mm 3 mps 718 mmHg 30%
    17:00 +21°C° 0 mm 3 mps 718 mmHg 33%
    18:00 +20°C° 0 mm 3 mps 719 mmHg 34%
    19:00 +19°C° 0 mm 3 mps 719 mmHg 35%
    20:00 +18°C° 0 mm 3 mps 720 mmHg 36%
    21:00 +17°C° 0 mm 3 mps 720 mmHg 37%
    22:00 +16°C° 0 mm 3 mps 720 mmHg 39%
    23:00 +16°C° 0 mm 3 mps 720 mmHg 40%

    14 December, Friday

    Time Temperature Precipitation Wind Pressure Humidity
    00:00 +14°C° 0 mm 3 mps 720 mmHg 41%
    01:00 +14°C° 0 mm 3 mps 719 mmHg 42%
    02:00 +14°C° 0 mm 3 mps 719 mmHg 43%
    03:00 +13°C° 0 mm 3 mps 719 mmHg 44%
    04:00 +14°C° 0 mm 2 mps 719 mmHg 46%
    05:00 +13°C° 0 mm 2 mps 719 mmHg 47%
    06:00 +13°C° 0 mm 3 mps 720 mmHg 46%
    07:00 +14°C° 0 mm 3 mps 721 mmHg 45%
    08:00 +16°C° 0 mm 3 mps 721 mmHg 44%
    09:00 +19°C° 0 mm 3 mps 721 mmHg 38%
    10:00 +21°C° 0 mm 4 mps 722 mmHg 33%
    11:00 +23°C° 0 mm 4 mps 722 mmHg 28%
    12:00 +23°C° 0 mm 4 mps 721 mmHg 26%
    13:00 +25°C° 0 mm 4 mps 721 mmHg 24%
    14:00 +25°C° 0 mm 3 mps 720 mmHg 22%
    15:00 +24°C° 0 mm 3 mps 720 mmHg 25%
    16:00 +21°C° 0 mm 3 mps 719 mmHg 28%
    17:00 +20°C° 0 mm 3 mps 719 mmHg 32%
    18:00 +19°C° 0 mm 3 mps 720 mmHg 32%
    19:00 +18°C° 0 mm 3 mps 720 mmHg 33%
    20:00 +17°C° 0 mm 3 mps 721 mmHg 34%
    21:00 +16°C° 0 mm 3 mps 721 mmHg 36%
    22:00 +14°C° 0 mm 3 mps 721 mmHg 37%
    23:00 +14°C° 0 mm 3 mps 721 mmHg 39%

    15 December, Saturday

    Time Temperature Precipitation Wind Pressure Humidity
    00:00 +13°C° 0 mm 3 mps 721 mmHg 40%
    01:00 +13°C° 0 mm 3 mps 720 mmHg 41%
    02:00 +12°C° 0 mm 3 mps 720 mmHg 42%
    03:00 +12°C° 0 mm 3 mps 720 mmHg 43%
    04:00 +12°C° 0 mm 3 mps 720 mmHg 45%
    05:00 +11°C° 0 mm 3 mps 720 mmHg 46%
    06:00 +12°C° 0 mm 4 mps 720 mmHg 45%
    07:00 +13°C° 0 mm 4 mps 721 mmHg 44%
    08:00 +14°C° 0 mm 4 mps 722 mmHg 43%
    09:00 +16°C° 0 mm 5 mps 722 mmHg 38%
    10:00 +20°C° 0 mm 5 mps 722 mmHg 34%
    11:00 +22°C° 0 mm 5 mps 722 mmHg 29%
    12:00 +23°C° 0 mm 5 mps 721 mmHg 27%
    13:00 +23°C° 0 mm 5 mps 721 mmHg 25%
    14:00 +25°C° 0 mm 4 mps 720 mmHg 23%
    15:00 +23°C° 0 mm 4 mps 720 mmHg 26%
    16:00 +21°C° 0 mm 3 mps 720 mmHg 29%
    17:00 +19°C° 0 mm 3 mps 720 mmHg 32%
    18:00 +18°C° 0 mm 3 mps 720 mmHg 32%
    19:00 +17°C° 0 mm 3 mps 720 mmHg 32%
    20:00 +16°C° 0 mm 3 mps 721 mmHg 32%
    21:00 +14°C° 0 mm 3 mps 721 mmHg 32%
    22:00 +14°C° 0 mm 3 mps 721 mmHg 32%
    23:00 +14°C° 0 mm 3 mps 721 mmHg 31%

    16 December, Sunday

    Time Temperature Precipitation Wind Pressure Humidity
    00:00 +13°C° 0 mm 3 mps 720 mmHg 31%
    01:00 +13°C° 0 mm 3 mps 720 mmHg 31%
    02:00 +13°C° 0 mm 3 mps 720 mmHg 31%
    03:00 +12°C° 0 mm 3 mps 720 mmHg 31%
    04:00 +12°C° 0 mm 3 mps 720 mmHg 32%
    05:00 +11°C° 0 mm 3 mps 720 mmHg 33%
    06:00 +12°C° 0 mm 3 mps 720 mmHg 34%
    07:00 +13°C° 0 mm 4 mps 721 mmHg 35%
    08:00 +13°C° 0 mm 4 mps 722 mmHg 35%
    09:00 +15°C° 0 mm 4 mps 722 mmHg 33%
    10:00 +18°C° 0 mm 4 mps 722 mmHg 31%
    11:00 +20°C° 0 mm 4 mps 722 mmHg 28%
    12:00 +19°C° 0 mm 4 mps 721 mmHg 30%
    13:00 +19°C° 0 mm 4 mps 720 mmHg 32%
    14:00 +18°C° 0 mm 3 mps 719 mmHg 34%
    15:00 +18°C° 0 mm 3 mps 719 mmHg 34%
    16:00 +17°C° 0 mm 3 mps 719 mmHg 35%
    17:00 +16°C° 0 mm 3 mps 719 mmHg 35%
    18:00 +16°C° 0 mm 3 mps 720 mmHg 36%
    19:00 +16°C° 0 mm 3 mps 720 mmHg 38%
    20:00 +14°C° 0 mm 3 mps 720 mmHg 39%
    21:00 +14°C° 0.1 mm 3 mps 720 mmHg 44%
    22:00 +13°C° 0.1 mm 3 mps 720 mmHg 50%
    23:00 +13°C° 0.1 mm 3 mps 720 mmHg 55%
    Show more